Вернуться в каталог

ONEWEB-0650

АктивенСвязьPO
NORAD 55813·PAYLOAD·🇬🇧 United Kingdom

Запущен Mar 9, 2023 с Cape Canaveral Space Force Station

Loading…

Ближайшие Пролёты (ближайшие 24 часа)

TLE

СвежийSource: CelesTrak SupGP

Эпоха: Sep 14, 2026, 18:37 UTC

1 55813C 23029T   26257.77588380 -.00000451  00000+0 -11272-2 0  2579
2 55813  87.9106 287.1267 0001811  75.3813 317.5444 13.19727226    15

Отслеживайте ONEWEB-0650 в реальном времени с AllMySat

Download on the App Store